FW6983 Weather Reports


time (UTC)temp
F
wind
direction
speed
knots
gust
knots
rain 1hr
in
rain 24hr
in
rain mn
in
humidity
%
barometer
mb
20260906044557 72 0 0.0 0.0 0.00 0.00 0.00 92 1014.6
20260906043053 72 0 0.0 0.9 0.00 0.00 0.00 92 1014.8
20260906041557 73 0 0.0 0.0 0.00 0.00 0.00 92 1014.5
20260906040137 73 0 0.0 1.7 0.00 0.00 0.00 92 1014.8
20260906034603 73 0 0.9 1.7 0.00 0.00 0.00 92 1015.1
20260906033104 73 0 0.0 0.9 0.00 0.00 0.00 92 1015.2
20260906031603 73 0 0.0 0.9 0.00 0.00 0.00 92 1015.2
20260906030058 73 0 0.0 1.7 0.00 0.00 0.00 91 1015.1
20260906024553 74 0 0.0 0.9 0.00 0.00 0.00 91 1014.5
20260906023057 74 0 0.0 2.6 0.00 0.00 0.00 91 1014.5
20260906021605 74 0 0.0 1.7 0.00 0.00 0.00 91 1014.5
20260906020058 75 336 0.0 0.9 0.00 0.00 0.00 91 1014.4
20260906014602 75 0 0.0 1.7 0.00 0.00 0.00 90 1014.3
20260906013058 75 0 0.0 0.0 0.00 0.00 0.00 89 1014.5
20260906011558 76 0 0.0 0.9 0.00 0.00 0.00 89 1014.5
20260906010105 76 0 0.0 0.0 0.00 0.00 0.00 88 1014.3
20260906004605 77 0 0.0 0.0 0.00 0.00 0.00 87 1014.0
20260906003103 78 0 0.0 0.9 0.00 0.00 0.00 86 1013.9
20260906001619 78 0 0.0 0.9 0.00 0.00 0.00 85 1013.8
20260906000054 79 0 0.0 0.0 0.00 0.00 0.00 85 1013.5
20260905234602 80 0 0.0 0.0 0.00 0.00 0.00 84 1013.3
20260905233113 81 0 0.0 0.0 0.00 0.00 0.00 83 1013.3
20260905231558 82 0 0.0 0.0 0.00 0.00 0.00 83 1013.4
20260905230113 82 0 0.0 0.0 0.00 0.00 0.00 82 1013.5
20260905224607 82 0 0.0 0.0 0.00 0.00 0.00 83 1013.5
20260905223059 81 0 0.0 0.0 0.00 0.00 0.00 83 1013.4
20260905221601 82 0 0.0 0.0 0.00 0.00 0.00 81 1013.4
20260905220105 82 0 0.0 0.9 0.00 0.00 0.00 80 1013.3
20260905214600 82 0 0.0 1.7 0.00 0.00 0.00 80 1013.5
20260905213110 82 0 0.0 2.6 0.00 0.00 0.00 79 1013.8
20260905211606 82 0 0.0 1.7 0.00 0.00 0.00 75 1013.8
20260905210108 82 268 0.0 2.6 0.00 0.00 0.00 77 1014.2
20260905204554 82 284 0.0 1.7 0.00 0.00 0.00 74 1014.2
20260905203100 82 311 0.9 2.6 0.00 0.00 0.00 73 1014.2
20260905201610 81 0 0.0 0.9 0.00 0.00 0.00 73 1014.5
20260905200125 80 0 0.0 3.5 0.00 0.00 0.00 74 1014.5
20260905194614 80 319 0.9 2.6 0.00 0.00 0.00 78 1014.7
20260905193057 80 151 0.9 2.6 0.00 0.00 0.00 76 1015.1
20260905191603 79 0 0.9 8.7 0.00 0.00 0.00 75 1015.4
20260905190104 79 0 0.0 3.5 0.00 0.00 0.00 80 1015.8
20260905184611 81 92 0.0 5.2 0.00 0.00 0.00 75 1015.4
20260905183059 85 289 1.7 11.3 0.00 0.00 0.00 68 1014.9
20260905181607 89 229 4.3 15.6 0.00 0.00 0.00 62 1015.0
20260905174606 93 0 0.0 0.0 0.00 0.00 0.00 54 1014.6
20260905173101 94 0 0.0 0.0 0.00 0.00 0.00 53 1014.7
20260905171605 94 0 0.0 0.0 0.00 0.00 0.00 54 1014.7
20260905170058 95 0 0.0 0.0 0.00 0.00 0.00 52 1014.9
20260905164601 94 0 0.0 0.0 0.00 0.00 0.00 56 1015.4
20260905163058 94 0 0.0 0.0 0.00 0.00 0.00 58 1015.7
20260905161558 93 0 0.0 0.0 0.00 0.00 0.00 63 1015.7
20260905160105 92 0 0.0 0.0 0.00 0.00 0.00 64 1015.7
20260905154559 92 0 0.0 0.0 0.00 0.00 0.00 68 1015.8
20260905153055 90 0 0.0 0.0 0.00 0.00 0.00 69 1015.8
20260905151605 89 0 0.0 0.0 0.00 0.00 0.00 68 1016.0
20260905144558 88 0 0.0 0.0 0.00 0.00 0.00 72 1015.9
20260905143056 86 0 0.0 0.0 0.00 0.00 0.00 73 1016.1
20260905141607 85 0 0.0 0.0 0.00 0.00 0.00 76 1016.2
20260905134558 82 0 0.0 0.0 0.00 0.00 0.00 82 1016.5
20260905133105 77 0 0.0 0.0 0.00 0.00 0.00 92 1016.4
20260905131611 75 0 0.0 0.0 0.00 0.00 0.00 94 1016.6
20260905130100 73 0 0.0 0.0 0.00 0.00 0.00 94 1016.6
20260905124556 72 0 0.0 0.0 0.00 0.00 0.00 94 1016.6
20260905123056 71 0 0.0 0.0 0.00 0.00 0.00 93 1016.5
20260905121557 71 0 0.0 0.0 0.00 0.00 0.00 93 1016.5
20260905120056 70 0 0.0 0.0 0.00 0.00 0.00 93 1016.4
20260905114612 70 0 0.0 0.0 0.00 0.00 0.00 92 1016.3
20260905113058 70 0 0.0 0.0 0.00 0.00 0.00 92 1016.2
20260905111608 70 0 0.0 0.0 0.00 0.00 0.00 92 1015.9
20260905110105 70 0 0.0 0.0 0.00 0.00 0.00 92 1015.4
20260905104601 71 0 0.0 0.0 0.00 0.00 0.00 92 1015.4
20260905103056 71 0 0.0 0.0 0.00 0.00 0.00 92 1015.4
20260905101558 71 0 0.0 0.0 0.00 0.00 0.00 92 1015.3
20260905100108 71 0 0.0 0.0 0.00 0.00 0.00 92 1015.3
20260905094608 71 0 0.0 0.0 0.00 0.00 0.00 92 1015.1
20260905093058 72 0 0.0 0.0 0.00 0.00 0.00 92 1015.2
20260905091610 72 0 0.0 0.0 0.00 0.00 0.00 92 1015.2
20260905090105 72 0 0.0 0.0 0.00 0.00 0.00 92 1015.2
20260905084559 72 0 0.0 0.0 0.00 0.00 0.00 92 1015.3
20260905083056 72 0 0.0 0.0 0.00 0.00 0.00 92 1015.4
20260905081620 72 0 0.0 0.0 0.00 0.00 0.00 92 1015.3
20260905080100 73 0 0.0 0.0 0.00 0.00 0.00 92 1015.6
20260905074556 73 0 0.0 0.0 0.00 0.00 0.00 92 1015.6
20260905073103 73 0 0.0 0.0 0.00 0.00 0.00 92 1015.8
20260905071604 73 0 0.0 0.0 0.00 0.00 0.00 92 1015.9
20260905070059 73 0 0.0 0.0 0.00 0.00 0.00 92 1016.0
20260905064559 73 0 0.0 0.0 0.00 0.00 0.00 91 1016.0
20260905063118 74 0 0.0 0.0 0.00 0.00 0.00 91 1016.3
20260905061613 74 0 0.0 0.0 0.00 0.00 0.00 91 1016.4
20260905060058 74 0 0.0 0.0 0.00 0.00 0.00 91 1016.5
20260905054606 74 0 0.0 0.0 0.00 0.00 0.00 91 1016.8
20260905053102 74 0 0.0 0.0 0.00 0.00 0.00 91 1017.0
20260905051600 75 0 0.0 0.0 0.00 0.00 0.00 91 1016.9
20260905050057 75 0 0.0 0.0 0.00 0.00 0.00 90 1016.9